Tracking 18852 objects as of 24-Nov-2017
HD Live streaming from Space Station
objects crossing your sky now

FENGYUN 1C DEB

Track FENGYUN 1C DEB now!
10-day predictions


NORAD ID: 30619
Int'l Code: 1999-025ANA
Perigee: 616.2 km
Apogee: 946.6 km
Inclination: 98.6 °
Period: 100.3 minutes
Semi major axis: 7152 km
RCS: 0.0078 m2 (small)
Launch date: May 10, 1999
Source: People's Republic of China (PRC)
Launch site: Taiyaun Space Center, China (TSC)

Note: This is SATELLITE DEBRIS
aabbcc
Your satellite tracking list
Your tracking list is empty




NASA's NSSDC Master Catalog

Two Line Element Set (TLE):
1 30619U 99025ANA 17327.56005770 +.00000185 +00000-0 +61744-4 0  9994
2 30619 098.6400 355.1145 0231022 196.4117 318.6580 14.35243415567170
Source of the keplerian elements: AFSPC